N5MDT Weather Reports


time (UTC)temp
C
wind
direction
speed
KPH
gust
KPH
rain 1hr
cm
rain 24hr
cm
rain mn
cm
humidity
%
barometer
mb
20260506080826 25 173 3.2 17.7 0.00 0.00 0.00 84 1009.2
20260506072826 25 134 6.4 16.1 0.00 0.00 0.00 83 1009.7
20260506071825 25 143 3.2 9.7 0.00 0.00 0.00 83 1009.7
20260506070825 25 110 0.0 12.9 0.00 0.00 0.00 83 1009.9
20260506061825 26 178 1.6 9.7 0.00 0.00 0.00 82 1010.0
20260506060825 26 144 6.4 9.7 0.00 0.00 0.00 81 1010.0
20260506050824 26 163 1.6 9.7 0.00 0.00 0.00 81 1010.2
20260506044824 26 223 1.6 8.0 0.00 0.00 0.00 80 1010.2
20260506043824 26 171 3.2 4.8 0.00 0.00 0.00 80 1010.0
20260506042834 26 94 4.8 19.3 0.00 0.00 0.00 80 1009.9
20260506041834 26 123 3.2 19.3 0.00 0.00 0.00 79 1009.5
20260506040834 26 155 4.8 14.5 0.00 0.00 0.00 79 1009.5
20260506035835 26 138 8.0 11.3 0.00 0.00 0.00 79 1009.7
20260506034834 26 98 4.8 17.7 0.00 0.00 0.00 78 1009.7
20260506033834 26 120 6.4 16.1 0.00 0.00 0.00 78 1009.5
20260506032834 26 119 4.8 16.1 0.00 0.00 0.00 77 1009.5
20260506031834 26 121 4.8 11.3 0.00 0.00 0.00 77 1009.5
20260506030834 27 200 3.2 11.3 0.00 0.00 0.00 77 1009.4
20260506025834 27 130 0.0 8.0 0.00 0.00 0.00 76 1009.4
20260506024834 27 153 1.6 4.8 0.00 0.00 0.00 76 1009.4
20260506023834 27 142 0.0 6.4 0.00 0.00 0.00 76 1009.3
20260506022833 27 98 3.2 6.4 0.00 0.00 0.00 76 1009.0
20260506021833 27 135 0.0 9.7 0.00 0.00 0.00 75 1008.9
20260506020833 27 153 1.6 8.0 0.00 0.00 0.00 75 1008.7
20260506015833 27 120 1.6 6.4 0.00 0.00 0.00 75 1008.6
20260506014833 27 146 1.6 6.4 0.00 0.00 0.00 74 1008.5
20260506013833 27 155 0.0 4.8 0.00 0.00 0.00 74 1008.2
20260506012833 27 158 1.6 8.0 0.00 0.00 0.00 74 1008.0
20260506011833 27 134 6.4 11.3 0.00 0.00 0.00 73 1008.0
20260506010833 27 177 3.2 11.3 0.00 0.00 0.00 73 1007.8
20260506005833 28 117 0.0 9.7 0.00 0.00 0.00 72 1007.8
20260506004833 28 188 0.0 8.0 0.00 0.00 0.00 72 1007.6
20260506003903 28 196 3.2 8.0 0.00 0.00 0.00 72 1007.6
20260506002833 28 160 0.0 16.1 0.00 0.00 0.00 71 1007.5
20260506001832 28 172 3.2 16.1 0.00 0.00 0.00 71 1007.6
20260506000832 28 170 8.0 12.9 0.00 0.00 0.00 70 1007.5
20260505235832 29 85 1.6 11.3 0.00 0.00 0.00 70 1007.5
20260505234832 29 129 6.4 14.5 0.00 0.00 0.00 69 1007.4
20260505233832 29 171 3.2 12.9 0.00 0.00 0.00 69 1007.5
20260505232832 30 121 4.8 16.1 0.00 0.00 0.00 68 1007.5
20260505231832 30 215 0.0 9.7 0.00 0.00 0.00 68 1007.5
20260505230832 30 245 6.4 8.0 0.00 0.00 0.00 67 1007.5
20260505225832 30 210 1.6 8.0 0.00 0.00 0.00 66 1007.5
20260505224832 30 190 1.6 16.1 0.00 0.00 0.00 66 1007.6
20260505223832 30 250 3.2 9.7 0.00 0.00 0.00 66 1007.6
20260505222832 30 181 4.8 11.3 0.00 0.00 0.00 66 1007.4
20260505221832 31 251 0.0 17.7 0.00 0.00 0.00 66 1007.4
20260505220832 31 189 3.2 11.3 0.00 0.00 0.00 66 1007.6
20260505215831 31 241 3.2 9.7 0.00 0.00 0.00 67 1007.6
20260505214831 31 167 1.6 14.5 0.00 0.00 0.00 66 1007.6
20260505213831 31 153 4.8 9.7 0.00 0.00 0.00 67 1007.8
20260505212831 31 248 3.2 12.9 0.00 0.00 0.00 66 1008.0
20260505211831 31 123 3.2 9.7 0.00 0.00 0.00 67 1008.1
20260505210831 30 217 0.0 9.7 0.00 0.00 0.00 68 1008.2
20260505205831 30 169 6.4 14.5 0.00 0.00 0.00 69 1008.3
20260505204831 30 134 8.0 11.3 0.00 0.00 0.00 70 1008.4
20260505203831 30 193 0.0 8.0 0.00 0.00 0.00 71 1008.6
20260505202831 29 215 0.0 8.0 0.00 0.00 0.00 71 1008.7
20260505201831 29 217 0.0 11.3 0.00 0.00 0.00 70 1008.9
20260505200830 29 243 3.2 11.3 0.00 0.00 0.00 70 1009.0
20260505195830 29 246 4.8 8.0 0.00 0.00 0.00 71 1009.2
20260505194831 29 345 1.6 12.9 0.00 0.00 0.00 72 1009.3
20260505193831 28 126 3.2 9.7 0.00 0.00 0.00 73 1009.3
20260505192830 28 240 4.8 8.0 0.00 0.00 0.00 73 1009.4
20260505191831 28 159 3.2 11.3 0.00 0.00 0.00 73 1009.4
20260505190830 28 239 0.0 12.9 0.00 0.00 0.00 74 1009.5
20260505185830 28 217 0.0 9.7 0.00 0.00 0.00 74 1009.5
20260505184830 28 296 1.6 8.0 0.00 0.00 0.00 76 1009.7
20260505183830 27 238 1.6 8.0 0.00 0.00 0.00 76 1009.8
20260505182830 27 108 1.6 6.4 0.00 0.00 0.00 76 1010.0
20260505181830 27 258 1.6 20.9 0.00 0.00 0.00 76 1009.8
20260505180830 27 181 3.2 11.3 0.00 0.00 0.00 77 1010.0
20260505175830 27 201 1.6 9.7 0.00 0.00 0.00 77 1010.1
20260505174830 27 144 1.6 14.5 0.00 0.00 0.00 77 1010.1
20260505173830 27 236 6.4 9.7 0.00 0.00 0.00 77 1010.1
20260505172839 27 163 1.6 9.7 0.00 0.00 0.00 79 1010.1
20260505171830 26 101 1.6 9.7 0.00 0.00 0.00 79 1010.0
20260505170830 26 202 3.2 9.7 0.00 0.00 0.00 80 1010.1
20260505165830 26 254 0.0 22.5 0.00 0.00 0.00 80 1010.2
20260505164830 26 228 3.2 11.3 0.00 0.00 0.00 80 1010.2
20260505163829 26 236 1.6 9.7 0.00 0.00 0.00 80 1010.1
20260505162829 26 123 3.2 9.7 0.00 0.00 0.00 81 1010.3
20260505161829 25 227 0.0 8.0 0.00 0.00 0.00 82 1010.3
20260505160829 25 263 0.0 6.4 0.00 0.00 0.00 82 1010.3
20260505152828 25 155 1.6 9.7 0.00 0.00 0.00 83 1010.1
20260505151828 24 162 3.2 9.7 0.00 0.00 0.00 83 1010.1
20260505150828 24 132 0.0 11.3 0.00 0.00 0.00 84 1010.2
20260505124827 22 196 0.0 6.4 0.00 0.00 0.00 86 1010.0
20260505123827 22 188 0.0 8.0 0.00 0.00 0.00 86 1009.5
20260505122827 22 204 0.0 12.9 0.00 0.00 0.00 86 1009.4
20260505121827 22 172 8.0 11.3 0.00 0.00 0.00 85 1009.4
20260505120827 22 96 3.2 6.4 0.00 0.00 0.00 85 1009.4
20260505115827 22 182 0.0 6.4 0.00 0.00 0.00 85 1009.4
20260505114827 22 180 0.0 6.4 0.00 0.00 0.00 85 1009.5
20260505113827 22 128 3.2 6.4 0.00 0.00 0.00 85 1009.2
20260505112826 22 140 0.0 8.0 0.00 0.00 0.00 85 1009.3
20260505111827 22 105 3.2 9.7 0.00 0.00 0.00 84 1009.3
20260505110826 22 158 0.0 8.0 0.00 0.00 0.00 84 1009.3
20260505101826 22 173 4.8 12.9 0.00 0.00 0.00 83 1009.4
20260505100826 22 106 4.8 8.0 0.00 0.00 0.00 83 1009.4
20260505095826 22 232 0.0 6.4 0.00 0.00 0.00 83 1009.7
20260505094826 22 219 0.0 6.4 0.00 0.00 0.00 83 1009.7
20260505093826 22 219 0.0 9.7 0.00 0.00 0.00 83 1009.5
20260505092825 22 132 3.2 11.3 0.00 0.00 0.00 83 1009.6
20260505091825 22 139 1.6 9.7 0.00 0.00 0.00 82 1009.7
20260505090825 22 122 4.8 8.0 0.00 0.00 0.00 82 1009.9
20260505085826 22 137 1.6 9.7 0.00 0.00 0.00 82 1009.9
20260505084825 22 159 3.2 8.0 0.00 0.00 0.00 82 1009.9
20260505083825 22 171 0.0 8.0 0.00 0.00 0.00 81 1010.1
20260505082825 22 196 0.0 6.4 0.00 0.00 0.00 81 1010.1
20260505081825 22 157 0.0 6.4 0.00 0.00 0.00 81 1010.3